User: anonymous   Login
Location: Corralito
(10.2667°N, 66.9500°W)
Time: 10:46:03
(UTC+00:00)
Language:

Lacrosse 5 rocket - Orbit

View from above orbital plane
View from above orbital plane
View from above satellite
View from above satellite

Ground track
Ground track

The orbit data is extracted from the following two-line orbital elements,

1 28647U 05016B   23266.58940420  .00011235  00000-0  55120-3 0  9998
2 28647  56.9952  53.8430 0112125 141.0909 219.8270 15.13235034239936
Epoch (UTC): 23 September 2023 14:08:44
Eccentricity: 0.0112125
inclination: 56.9952°
perigee height: 449 km
apogee height: 604 km
right ascension of ascending node: 53.8430°
argument of perigee: 141.0909°
revolutions per day: 15.13235034
mean anomaly at epoch: 219.8270°
orbit number at epoch: 23993

The dashed part of the orbit path shows where the satellite is in the earth's shadow,  

DLR